Location: Home
(42.5358°N, 72.7383°W)
Time: 05:40:12
(UTC-04:00)

COSMOS 2251 DEB - Pass Details

Date: 02 July 2022
Orbit: 769 x 1233 km, 74.1° (Epoch: 15 August)

Event Time Altitude Azimuth Distance (km) Brightness Sun altitude
Exits shadow 04:04:00 - 264° (W) 3,047 ? -11.3°
Reaches altitude 10° 04:05:34 10° 275° (W) 2,700 ? -11.1°
Maximum altitude 04:09:27 17° 313° (NW) 2,350 ? -10.6°
Drops below altitude 10° 04:13:35 10° 352° (N) 2,915 ? -10.1°
Sets 04:17:33 0° 12° (NNE) 3,968 ? -9.5°
